Regional Weather Roundup
Issued by NWS

Home | Current Version | Previous Version | Graphics & Text | Print | Product List | Glossary On
Versions: 1 2 3 4 5 6 7 8 9 10 11 12 13 14 15 16 17 18 19 20 21 22 23 24 25 26 27 28 29 30 31 32 33 34 35 36 37 38 39 40 41 42 43 44 45 46 47 48 49 50
000
ASUS43 KBIS 201120
RWRND

NORTH DAKOTA REGIONAL WEATHER ROUNDUP
NATIONAL WEATHER SERVICE BISMARCK ND
600 AM CDT SUN APR 20 2014

NOTE: "FAIR" INDICATES FEW OR NO CLOUDS BELOW 12,000 FEET WITH NO
SIGNIFICANT WEATHER AND/OR OBSTRUCTIONS TO VISIBILITY.


NDZ001>003-009>011-017-201200-
NORTHWEST NORTH DAKOTA

CITY           SKY/WX    TMP DP  RH WIND       PRES   REMARKS
WILLISTON      CLEAR     29  26  89 CALM      29.87F
MINOT          CLEAR     35  30  82 S5        29.92F
MINOT AFB      CLEAR     34  33  94 S8        29.92F
$$

NDZ018>021-031>035-040>046-201200-
SOUTHWEST NORTH DAKOTA

CITY           SKY/WX    TMP DP  RH WIND       PRES   REMARKS
BISMARCK       CLEAR     34  32  92 NE8       29.97F
DICKINSON      CLEAR     37  25  61 S10       29.88F
GARRISON         N/A     33  29  85 E3        29.94S
HETTINGER ARPT CLEAR     28  22  78 CALM      29.93F
$$

NDZ004>008-012>016-024-026-027-054-201200-
NORTHEAST NORTH DAKOTA

CITY           SKY/WX    TMP DP  RH WIND       PRES   REMARKS
GRAND FORKS    CLEAR     31  28  89 CALM      30.03R
GRND FRKS AFB  CLEAR     28  27  93 CALM      30.03R FOG
DEVILS LAKE    CLEAR     30  23  74 NE3       29.99S
$$

NDZ022-023-025-028>030-036>039-047>053-201200-
SOUTHEAST NORTH DAKOTA

CITY           SKY/WX    TMP DP  RH WIND       PRES   REMARKS
FARGO          CLEAR     30  28  92 CALM      30.03R
JAMESTOWN      CLEAR     32  31  96 S6        29.99S
$$




USA.gov is the U.S. government's official web portal to all federal, state and local government web resources and services.